Погода в Салехарде

Погода в Салехарде : погода сейчас, прогноз погоды и архив. Всё, что Вы хотите узнать о погоде в Салехарде!

Хотите узнать прогноз погоды в Салехарде? Тогда Вам сюда: Погода в Салехарде

Поиск расширенной информации на нашем сайте:

Другие новости

Новости СМИ2

Главная страница сайта

Новости сайта

03.07.2017

Напоминаем, что на нашем специализированном сайте Метеоцентр.Азия вы можете получить высокодетализированные автоматические прогнозы погоды по пунктам России, СНГ и мира в авиационном формате (включающие направление и скорость ветра, видимость, явления погоды, количество и форму облачности, нижнюю и верхнюю границу облачности).


Погода в Салехарде - сегодня

Время (UTC), дата Ветер
(°,м/с) 
Видим.   Явления Облачность Т
(°С)
Тd
(°С)
f(%) Тe
(°С)
Pmin
(гПа)
dP
(гПа)
Po
(мм)
O2
(г/м3)
Тmin Tmax R s Состояние
почвы
21 16.05.18 тихо ()   10 км    8/5 360 м кучево-дожд., средняя 
[Cb cap|Ac trans]
-5.8 -11.1 66 -6  1016.9  -1.2  761  314           
03 17.05.18 290 (З) 10 км  слаб. снег  10/6 150 м верхняя 
[Frnb|Cs]
-4.9 -8 79 -6  1014.6  -1.2  759  312  -6.3    0.6  59  неравномерный
сухой снег
100% 
12 17.05.18 050 (СВ) 10 км  слаб. ливневой снег  10/8 300 м кучево-дожд., средняя 
[Cb calv|Ac trans]
-3.1 -7.7 70 -7  1015.9  1.5  760  311           
15 17.05.18 050 (СВ) 6{10}  20000 м  в посл. час ливневой снег  6/3 600 м кучево-дожд., средняя 
[Cb calv|Ac trans]
-5.9 -10.3 71 -10  1017.8  1.9  762  315    -0.1  0.3     
18 17.05.18 040 (СВ) 10 км  {ливн. осадки}  9/0 средняя 
[Ac trans]
-9.5 -12.9 76 -12  1019.2  1.4  763  320           
21 17.05.18 300 (СЗ) 10 км    8/0 средняя 
[Ac trans]
-9.1 -12.5 76 -12  1019.4  0.1  763  319           
03 18.05.18 200 (Ю) 10 км  слаб. ливневой снег  10/8 400 м кучево-дожд., средняя 
[Cb calv|Ac trans]
-5.6 -9.3 75 -5  1020.5  1.1  764  315  -10.1    0.5  59  неравномерный
сухой снег
100% 
06 18.05.18 300 (СЗ) 20000 м  {ливн. осадки}  10/0 средняя, верхняя 
[Ac trans|Ci ing]
+0.6 -7.8 53 +1  1021.9  1.4  765  308           
09 18.05.18 050 (СВ) 20000 м    10/0 верхняя 
[Cs]
+1.5 -7.2 52 +2  1023.2  1.3  766  308           
12 18.05.18 090 (В) 20000 м    10/0 средняя, верхняя 
[Ac trans|Cs]
-1.1 -6 69 -3  1024  0.8  766  311           
18 18.05.18 080 (В) 20000 м    4/0 верхняя 
[Ci fib]
-7.1 -9.6 82 -7  1024  -0.4  766  318           
21 18.05.18 050 (СВ) 10 км    ясно 
-9.6 -11.1 89 -9  1023.6  -0.4  766  321           
03 19.05.18 180 (Ю) 20000 м    10/0 средняя, верхняя 
[Ac trans|Ci fib]
-6 -8.7 81 -7  1020.9  -1.6  764  316  -11.4      59  неравномерный
мокрый или
старый снег
100% 
06 19.05.18 120 (ЮВ) 20000 м    10/0 средняя, верхняя 
[Ac trans|Ci fib]
-0.7 -6.8 63 -2  1018.6  -2.3  762  309           
09 19.05.18 170 (Ю) 20000 м    10/0 средняя, верхняя 
[Ac trans|Ci fib]
+3.2 -5.1 54 +2  1015.9  -2.7  760  303           
12 19.05.18 180 (Ю) 20000 м    10/0 средняя, верхняя 
[Ac trans|Ci fib]
+3.6 -3.1 62 +2  1013  -2.8  758  302           
15 19.05.18 180 (Ю) 20000 м    10/6 1500 м средняя 
[Sc diur, vesp|Ac trans]
+3.9 -3.5 58 +3  1010.3  -2.7  756  301    +4.7       
03 20.05.18 190 (Ю) 20000 м  {дождь}  10/10 900 м 
[Cu Sc]
+1.9 -1.1 80 1000.8  -1.4  749  300  +1.3    0.7  52  неравномерный
мокрый или
старый снег
100% 
09 20.05.18 320 (СЗ) 20000 м    9/6 400 м кучево-дожд., средняя, верхняя 
[Cb cap|Ac trans|Ci fib]
+7.2 +0.8 64 +6  1001.1  749  294           
12 20.05.18 030 (СВ) 20000 м    10/8 450 м кучево-дожд., средняя 
[Cb cap|Ac trans]
+3.9 -0.2 75 +3  1003.9  2.8  751  299           
15 20.05.18 060 (СВ) 20000 м    10/8 400 м кучево-дожд., средняя 
[Cb cap|Ac trans]
+2 -1 80 +1  1006.6  2.6  753  301    +7.7       
18 20.05.18 050 (СВ) 20000 м    10/6 720 м средняя 
[Sc diur, vesp|Ac trans]
-1 -3.9 81 -4  1009.3  2.8  755  306           
21 20.05.18 060 (СВ) 10 км    8/3 600 м средняя 
[Sc diur, vesp|Ac trans]
-3.5 -5.7 85 -6  1011.4  2.1  757  310           
00 21.05.18 180 (Ю) 20000 м    8/0 верхняя 
[Ci fib]
-2.8 -6.2 77 -2  1013.5  2.1  759  310           
03 21.05.18 320 (СЗ) 20000 м    4/0 верхняя 
[Ci fib]
+0.6 -5.2 65 -1  1014.6  1.1  759  306  -5      48  мокрый или
старый снег
50-90% 
Время (UTC), дата Ветер
(°,м/с) 
Видим.   Явления Облачность Т
(°С)
Тd
(°С)
f(%) Тe
(°С)
Pmin
(гПа)
dP
(гПа)
Po
(мм)
O2
(г/м3)
Тmin Tmax R s Состояние
почвы

Для получения пояснительной информации подведите курсор к названию столбца.

ПОГОДА в Салехарде - архив

Всё, что Вы хотите узнать о погоде в Салехарде - удобно и подробно!

Выберите нужную дату (начиная с 1 января 2015* года) и нажмите кнопку "Найти".
Будут отображены архивные сводки погоды по пункту Салехард, начиная с указанной даты.


Отображать данные в формате CSV (для использования в таблицах Excel)


Внимание! Наш архив погоды предназначен исключительно для личного некоммерческого использования в познавательных целях. Если Вам необходимы официальные справки о состоянии погоды (для производственных, юридических, коммерческих и т.п. целей), обращайтесь в органы Росгидромета.

*Примечание: данная дата относится к архиву по метеостанциям СССР (Россия, СНГ, Балтия).
Архив по метеостанциям Зарубежной Европы и Азии (кроме Китая) хранится 10 дней, по другим регионам земного шара (Китай, Африка, Америка, Австралия, Океания) - 1 день.

Салехард - район местоположения метеостанции


Название, широта, долгота, высота метеостанции:
Салехард (город) 66.5°ш. 66.7°д. 16 м над ур. моря [Российская Федерация]

Дополнительная информация

В oтличие oт бoльшинства пoгoдных сайтoв мы публикуем пoдрoбную метеoинфoрмацию в детальнoм прoфессиoнальнoм фoрмате.

Характеристики температуры и влажнoсти вoздуха измеряются на высoте 2 м в тени вдали oт зданий и деревьев.
Скoрoсть ветра измеряется на высoте 10 м (на урoвне рoста челoвека скoрoсть ветра ниже в 1.5-2 раза). Если метеoстанция нахoдится в гoрoде или в лесу, тo скoрoсть ветра занижена на 2-4 м/с пo сравнению с oткрытым местoм. Скoрoсть ветра над акватoриями крупных рек и oзёр, а также на вершинах хoлмoв на 2-5 м/с выше, чем в oбычных услoвиях.
Атмoсфернoе давление в разных тoчках местнoсти мoжет значительнo oтличаться oт давления на метеoстанции, в зависимoсти oт услoвий рельефа (при пoдъёме на 10 м давление пoнижается примернo на 1 мм рт.ст.).